Regional Weather Roundup
Issued by NWS San Diego, CA

Home | Current Version | Previous Version | Text Only | Print | Product List | Glossary On
Versions: 1 2 3 4 5 6 7 8 9 10 11 12 13 14 15 16 17 18 19 20 21 22 23 24 25 26 27 28 29 30 31 32 33 34 35 36 37 38 39 40 41 42 43 44 45 46 47 48 49 50
000
ASUS46 KSGX 090811
RWRSGX

SAN DIEGO HOURLY WEATHER ROUNDUP
NATIONAL WEATHER SERVICE SAN DIEGO CA
1200 AM PST TUE FEB 09 2016

NOTE: "FAIR" INDICATES FEW OR NO CLOUDS BELOW 12,000 FEET WITH NO
SIGNIFICANT WEATHER AND/OR OBSTRUCTIONS TO VISIBILITY.

CAZ042-043-060-061-PZZ750-775-090900-

GREATER SAN DIEGO AREA

CITY           SKY/WX    TMP DP  RH WIND       PRES   REMARKS
LINDBERGH FLD  CLEAR     62  32  32 CALM      30.12F
NATIONAL CITY    N/A     59  36  42 CALM      30.11F
CHULA VISTA      N/A     56  37  49 CALM      30.04S
IMPERIAL BEACH CLEAR     68  25  19 NE10      30.10F
BROWN FIELD    CLEAR     62  25  24 E7        30.12S
MIRAMAR MCAS   CLEAR     59  30  33 E10       30.11F
MONTGOMERY FLD CLEAR     57  31  37 NE3       30.12F

$$

NORTH SAN DIEGO COUNTY

CITY           SKY/WX    TMP DP  RH WIND       PRES   REMARKS
CAMP PENDLETON CLEAR     61  27  27 N3        30.11F
OCEANSIDE AP   CLEAR     51  35  54 N3        30.11F
OCEANSIDE HBR    N/A     59  36  42 E7        30.12F
VISTA            N/A     59  32  36 CALM      30.11F
CARLSBAD       CLEAR     63  30  28 NE5       30.11F
DEL MAR          N/A     64  29  26 CALM      30.12F
FALLBROOK        N/A     70  24  18 W6        30.12S
ESCONDIDO        N/A     58  31  36 CALM      30.12F
SAN MARCOS       N/A     62  31  31 CALM      30.10F
POWAY            N/A     55  31  39 CALM      30.12F

$$

EAST SAN DIEGO COUNTY

CITY           SKY/WX    TMP DP  RH WIND       PRES   REMARKS
RAMONA         CLEAR     56  25  30 CALM      30.15F
SANTEE LAKES     N/A     52  35  52 CALM      30.12S
LA MESA          N/A     66  29  24 CALM      30.05S
JAMUL            N/A     58  29  32 CALM      30.12F
DESCANSO N       N/A     64  14  14 E13       30.04F
MT. LAGUNA OBS   N/A     49  11  21 E15       29.86S
CAMPO            N/A     53  21  28 VRB5      30.19S

$$

ORANGE COUNTY AND THE LOS ANGELES BASIN

CITY           SKY/WX    TMP DP  RH WIND       PRES   REMARKS
JOHN WAYNE AP  CLEAR     61  34  36 CALM      30.10F
LAGUNA BEACH     N/A     54  33  44 CALM      30.06F
LAKE FOREST FR   N/A     67  18  15 NE2       29.99F
HUNTINGTON BCH   N/A     66  28  24 CALM      30.12F
LOS ALAMITOS   FAIR      72  23  16 N3        30.11F
FULLERTON      CLEAR     68  24  19 CALM      30.11F
LONG BEACH     CLEAR     63  36  36 NW5       30.12S
L.A. AP        CLEAR     67  29  24 NE3       30.13S
L.A. DOWNTOWN  CLEAR     62  34  35 CALM      30.13S

$$

THE INLAND EMPIRE

CITY           SKY/WX    TMP DP  RH WIND       PRES   REMARKS
CORONA         CLEAR     71  24  17 SE10      30.16F
CHINO          CLEAR     54  32  43 NW3       30.16S
ONTARIO        CLEAR     52  31  44 CALM      30.15F
RIVERSIDE AP   CLEAR     60  27  28 NE6       30.17F
MORENO VALLEY    N/A     61  30  31 CALM      28.29F
MARCH ARB      CLEAR     54  22  29 VRB6      30.19F
HORSETHIEF CYN   N/A     62  19  19 NW3       30.20F
PERRIS           N/A     64  29  26 CALM      30.21S
HEMET EAST       N/A     59  17  18 CALM      30.07F
FRENCH VALLEY  FAIR      50  32  50 N5        30.19F
TEMECULA         N/A     59  31  35 CALM      30.14F

$$

SAN BERNARDINO AND RIVERSIDE COUNTY MOUNTAINS

CITY           SKY/WX    TMP DP  RH WIND       PRES   REMARKS
BIG BEAR AP    CLEAR     27  19  74 CALM      30.46S
PINE COVE        N/A     58   7  13 N2        30.17F

$$

SOUTHERN DESERT INCLUDING THE COACHELLA VALLEY

CITY           SKY/WX    TMP DP  RH WIND       PRES   REMARKS
PALM SPRINGS   CLEAR     69  25  19 W7        30.21F
THOUSAND PALMS   N/A     66  26  22 W3        30.17F
PALM DESERT      N/A     66  28  23 CALM      29.29R
THERMAL        CLEAR     62  25  24 N7        30.15F
BLYTHE         CLEAR     60  25  26 CALM      30.18S
IMPERIAL AP    CLEAR     54  27  35 W7        30.14F
EL CENTRO NAS  CLEAR     53  21  28 W9        30.16F
YUMA AZ        CLEAR     67  23  19 N9        30.14R
MEXICALI       CLEAR     63  21  20 W10       30.15S

$$

UPPER DESERT

CITY           SKY/WX    TMP DP  RH WIND       PRES   REMARKS
VICTORVILLE AP CLEAR     45  19  36 CALM      30.34S
HESPERIA         N/A     46  25  44 CALM      30.48S
APPLE VALLEY     N/A     38  22  51 CALM      30.34F
PALMDALE       CLEAR     47  22  37 N8        30.32F
LANCASTER      CLEAR     40  25  55 W7        30.33S
EDWARDS AFB    CLEAR     44  22  41 NE8       30.31F
DAGGETT        CLEAR     49  24  37 W5        30.32S
29 PALMS N     CLEAR     51  21  30 NW7       30.37S
NEEDLES        CLEAR     67  27  22 N20G26    30.24S

$$

REGIONAL REPORTS

CITY           SKY/WX    TMP DP  RH WIND       PRES   REMARKS
SANTA BARBARA  CLEAR     54  39  57 CALM      30.13F
SANDBERG       CLEAR     56  20  24 E30G39    30.34F
LAS VEGAS NV   CLEAR     56  28  34 S3        30.33S
PHOENIX AZ     CLEAR     64  24  21 E9        30.16S
TIJUANA        CLEAR     68  16  13 E12       30.13F
ENSENADA NW      N/A     72  32  23 CALM      30.07R

$$

OFFSHORE ISLANDS

CITY           SKY/WX    TMP DP  RH WIND       PRES   REMARKS
CATALINA ARPT  CLEAR     67  20  16 E8        30.18F
SAN NICOLAS IS CLEAR    N/A N/A N/A W10       30.13F

$$

MARINE AND OFFSHORE BUOY REPORTS

STATION/POSITION SKY/WX   TEMP    WIND        PRES    SWELL
                          AIR SEA DIR/SP/G            HT/PER/DIR
                          (F)     (DEG/KT/KT) (MB)    (FT/S/D)
TANNER BANKS               62 60  320/  6/  8 1019.8F   5/300/17
S CLEMENTE BASIN           63 61  300/  2/  4 1019.6R   3/290/17
SAN NICOLAS IS.               59                N/A     5/300/17
SO. S. ROSA ISLA           60 58              1019.4F
W. S. BARBARA CH           61 58  280/  2/  4 1019.7F   7/290/16
M. S. BARBARA CH           63 58   10/  4/  4 1020.5F
S. MONICA BASIN            66 60   CALM  /  2 1020.1S   2/200/17
S PEDRO CHANNEL               60                N/A     2/270/18
DANA POINT                    61                N/A     2/190/13
OCEANSIDE OFFSHR              60                N/A     2/200/13
TORREY PINES OTR              60                N/A     2/220/13
LA JOLLA 1                 69 60   CALM  /  3 1019.6R
SAN DIEGO BAY                 61              1020.4R
POINT LOMA SOUTH              61                N/A     3/230/13

$$




USA.gov is the U.S. government's official web portal to all federal, state and local government web resources and services.